Station 45024 - Ludington Buoy, MI Image indicating link to RSS feed of recent meteorological observations for station 45024


Conditions at 45024 as of
(8:20 am EDT)
1220 GMT on 07/20/2024:
     

Click on the graph icon in the table below to see a time series plot of the last five days of that observation.

5-day plot - Wind Direction Wind Direction (WDIR):SSW ( 210 deg true )
5-day plot - Wind Speed Wind Speed (WSPD): 3.9 kts
5-day plot - Wind Gust Wind Gust (GST): 5.8 kts
5-day plot - Wave Height Wave Height (WVHT): 1.6 ft
5-day plot - Dominant Wave Period Dominant Wave Period (DPD): 4 sec
5-day plot - Mean Wave Direction Mean Wave Direction (MWD):SSW ( 209 deg true )
5-day plot - Atmospheric Pressure Atmospheric Pressure (PRES):30.12 in
5-day plot - Air Temperature Air Temperature (ATMP): 68.9 °F
5-day plot - Water Temperature Water Temperature (WTMP): 66.2 °F
5-day plot - Dew Point Dew Point (DEWP): 65.8 °F
5-day plot - Wind Speed at 10 Meters Wind Speed at 10 meters (WSPD10M): 3.9 kts
5-day plot - Wind Speed at 20 Meters Wind Speed at 20 meters (WSPD20M): 3.9 kts
5-day plot -  Wind Speed, Wind Gust and Atmospheric Pressure Combined plot of Wind Speed, Gust, and Air Pressure
Previous observations
TIME
(EDT)
5-day plot - Wind Direction
WDIR
 
5-day plot - Wind Speed
WSPD
kts
5-day plot - Wind Gust
GST
kts
5-day plot - Wave Height
WVHT
ft
5-day plot - Dominant Wave Period
DPD
sec
5-day plot - Average Wave Period
APD
sec
5-day plot - Mean Wave Direction
MWD
 
5-day plot - Atmospheric Pressure
PRES
in
5-day plot - Pressure Tendency
PTDY
in
5-day plot - Air Temperature
ATMP
°F
5-day plot - Water Temperature
WTMP
°F
5-day plot - Dew Point
DEWP
°F
5-day plot - Salinity
SAL
psu
5-day plot - Visibility
VIS
nmi
5-day plot - Tide (above MLLW)
TIDE
ft
2024-07-20 08:10 amWSW 3.9 7.8 2.0 4-SSW30.11- 68.5 66.2 65.8---
2024-07-20 08:00 amWSW 5.8 7.8 2.0 4-SSW30.11+0.02 68.4 66.2 65.7---
2024-07-20 07:50 amWSW 3.9 5.8 2.0 4-SSW30.11- 68.4 66.0 65.7---
2024-07-20 07:40 amWSW 5.8 5.8 2.0 4-SSW30.11- 68.2 65.8 65.7---
2024-07-20 07:30 amWSW 3.9 5.8 2.0 4-SSW30.11- 68.0 65.7 65.8---
2024-07-20 07:20 amWSW 5.8 7.8 2.0 4-SSW30.11- 68.0 65.5 65.8---
2024-07-20 07:10 am SW 3.9 7.8 2.0 4-SSW30.11- 68.0 65.7 65.8---
2024-07-20 07:00 amSSW 3.9 5.8 2.0 4-SSW30.11+0.01 68.0 66.0 65.8---
2024-07-20 06:50 amSSW 3.9 7.8 2.0 4-SSW30.10- 68.0 65.7 65.8---
2024-07-20 06:40 amSSW 3.9 5.8 2.0 4-SSW30.10- 68.0 65.8 65.8---
2024-07-20 06:30 amSSW 3.9 7.8 2.0 4-SSW30.10- 68.0 66.4 65.8---
2024-07-20 06:20 amSSW 3.9 7.8 2.0 4-SSW30.10- 68.0 66.6 65.8---
2024-07-20 06:10 amSSW 5.8 5.8 2.0 4-SSW30.10- 68.2 66.6 65.8---
2024-07-20 06:00 amSSW 5.8 5.8 2.0 4-SSW30.10-0.01 68.2 66.6 65.8---
2024-07-20 05:50 am SW 5.8 7.8 2.0 4-SSW30.09- 68.2 66.7 65.8---
2024-07-20 05:40 amSSW 5.8 7.8 2.0 4-SSW30.09- 68.2 66.7 65.7---
2024-07-20 05:30 amSSW 7.8 7.8 2.0 4-SSW30.09- 68.4 66.9 65.5---
2024-07-20 05:20 amSSW 7.8 7.8 2.0 4-SSW30.09- 68.4 66.9 65.7---
2024-07-20 05:10 amSSW 7.8 9.7 2.0 4-SSW30.09- 68.5 67.1 65.7---
2024-07-20 05:00 amSSW 7.8 9.7 2.0 4-SSW30.09-0.02 68.5 67.1 65.5---
2024-07-20 04:50 amSSW 7.8 11.7 2.0 4-SSW30.09- 68.5 67.3 65.5---
2024-07-20 04:40 am SW 9.7 11.7 2.0 4-SSW30.09- 68.5 67.3 65.5---
2024-07-20 04:30 am SW 9.7 9.7 2.0 4- SW30.09- 68.5 67.3 65.8---
2024-07-20 04:20 am SW 9.7 9.7 2.0 4- SW30.09- 68.5 67.5 65.8---
2024-07-20 04:10 amSSW 9.7 11.7 2.0 4- SW30.09- 68.5 67.5 65.8---
2024-07-20 04:00 amSSW 9.7 9.7 2.0 4- SW30.10-0.04 68.5 67.5 65.8---
2024-07-20 03:50 amSSW 9.7 11.7 2.0 4- SW30.10- 68.5 67.5 65.8---
2024-07-20 03:40 amSSW 9.7 11.7 2.0 4- SW30.10- 68.5 67.5 65.7---
2024-07-20 03:30 amSSW 9.7 11.7 2.0 4- SW30.10- 68.7 67.5 65.5---
2024-07-20 03:20 am SW 9.7 9.7 2.0 4- SW30.10- 68.7 67.5 65.3---
2024-07-20 03:10 am SW 9.7 11.7 2.0 4-SSW30.10- 68.7 67.5 65.3---
2024-07-20 03:00 am SW 9.7 11.7 2.0 4-SSW30.10-0.03 68.7 67.5 65.3---
2024-07-20 02:50 am SW 9.7 11.7 2.0 4- SW30.11- 68.7 67.5 65.1---
2024-07-20 02:40 amSSW 9.7 11.7 2.0 4- SW30.11- 68.7 67.6 65.1---
2024-07-20 02:30 am SW 9.7 13.6 2.0 4- SW30.11- 68.7 67.6 65.1---
2024-07-20 02:20 am SW 9.7 11.7 2.0 4- SW30.11- 68.7 67.8 65.1---
2024-07-20 02:10 amSSW 9.7 11.7 2.0 4-SSW30.11- 68.7 67.8 65.1---
2024-07-20 02:00 am SW 9.7 11.7 2.0 4-SSW30.12-0.01 68.9 68.0 65.3---
2024-07-20 01:50 am SW 9.7 11.7 2.0 4-SSW30.12- 68.9 68.0 65.1---
2024-07-20 01:40 am SW 9.7 11.7 2.0 4-SSW30.12- 68.9 68.0 64.9---
2024-07-20 01:30 am SW 9.7 13.6 2.0 4-SSW30.13- 68.9 68.2 64.9---
2024-07-20 01:20 am SW 9.7 11.7 1.6 4-SSW30.13- 68.9 68.2 64.9---
2024-07-20 01:10 am SW 9.7 13.6 1.6 4-SSW30.13- 69.1 68.4 64.8---
2024-07-20 01:00 am SW 9.7 11.7 1.6 4-SSW30.13+0.01 69.1 68.4 64.4---
2024-07-20 12:50 am SW 9.7 11.7 1.6 4-SSW30.13- 69.3 68.5 64.2---
2024-07-20 12:40 am SW 9.7 13.6 2.0 4-SSW30.13- 69.3 68.5 63.7---
2024-07-20 12:30 am SW 9.7 13.6 2.0 4-SSW30.13- 69.3 68.7 63.7---
2024-07-20 12:20 am SW 9.7 11.7 2.0 4-SSW30.13- 69.3 68.9 64.0---
2024-07-20 12:10 amSSW 9.7 11.7 2.0 4-SSW30.13- 69.3 68.9 64.2---
2024-07-20 12:00 amSSW 9.7 9.7 2.0 4-SSW30.13+0.01 69.3 69.1 64.4---
2024-07-19 11:50 pmSSW 9.7 11.7 2.0 4-SSW30.13- 69.3 69.1 64.6---
2024-07-19 11:40 pmSSW 9.7 9.7 2.0 4-SSW30.13- 69.3 69.3 64.8---
2024-07-19 11:30 pmSSW 7.8 11.7 2.0 4-SSW30.13- 69.3 69.3 64.9---
2024-07-19 11:20 pmSSW 9.7 11.7 2.0 4-SSW30.13- 69.3 69.4 64.8---
2024-07-19 11:10 pmSSW 9.7 11.7 2.0 4-SSW30.13- 69.3 69.4 64.8---
2024-07-19 11:00 pm SW 9.7 9.7 2.0 4-SSW30.13+0.01 69.3 69.4 64.9---
2024-07-19 10:50 pm SW 9.7 11.7 2.0 4-SSW30.13- 69.3 69.4 64.9---
2024-07-19 10:40 pmSSW 11.7 13.6 2.0 4-SSW30.13- 69.3 69.4 64.8---
2024-07-19 10:30 pmSSW 11.7 13.6 2.0 4-SSW30.12- 69.3 69.4 64.8---
2024-07-19 10:20 pmSSW 11.7 13.6 1.6 3- S30.12- 69.1 69.4 64.8---
2024-07-19 10:10 pmSSW 11.7 13.6 1.6 3- S30.12- 69.3 69.6 64.9---
2024-07-19 10:00 pmSSW 11.7 13.6 1.6 4- S30.12-0.01 69.3 69.4 64.9---
2024-07-19 09:50 pmSSW 11.7 13.6 1.6 4- S30.12- 69.3 69.4 64.8---
2024-07-19 09:40 pmSSW 11.7 13.6 1.6 3- S30.12- 69.3 69.4 64.8---
2024-07-19 09:30 pmSSW 11.7 13.6 1.6 3- S30.11- 69.3 69.4 64.8---
2024-07-19 09:20 pm SW 11.7 13.6 1.3 3- S30.11- 69.3 69.4 64.6---
2024-07-19 09:10 pmSSW 11.7 13.6 1.3 3- S30.11- 69.1 69.4 64.8---
2024-07-19 09:00 pmSSW 9.7 11.7 1.3 3- S30.11-0.03 69.1 69.3 65.1---
2024-07-19 08:50 pmSSW 11.7 13.6 1.3 3- S30.11- 69.3 69.3 64.8---
2024-07-19 08:40 pmSSW 9.7 13.6 0.3-- S30.11- 69.4 69.3 64.8---
2024-07-19 08:30 pmSSW 11.7 13.6 0.3-- S30.11- 69.4 69.3 64.6---
2024-07-19 08:20 pmSSW 9.7 11.7 1.0 3- S30.11- 69.4 69.3 64.4---
2024-07-19 08:10 pmSSW 9.7 11.7 0.7-- S30.12- 69.4 69.3 64.4---
2024-07-19 08:00 pmSSW 9.7 11.7 1.3 3- S30.12-0.04 69.4 69.3 64.6---
2024-07-19 07:50 pm S 7.8 9.7 1.3 3- S30.12- 69.4 69.3 64.6---
2024-07-19 07:40 pm S 9.7 11.7 1.3 3- S30.12- 69.4 69.4 64.6---
2024-07-19 07:30 pm S 9.7 9.7 1.3 3- S30.12- 69.4 69.4 64.4---
2024-07-19 07:20 pm S 9.7 11.7 1.3 3- S30.12- 69.4 69.4 64.8---
2024-07-19 07:10 pm S 7.8 9.7 1.0 3- S30.12- 69.4 69.4 64.8---
2024-07-19 07:00 pm S 7.8 11.7 1.0 3- S30.13-0.03 69.6 69.4 64.8---
2024-07-19 06:50 pmSSW 9.7 11.7 1.0 3- S30.14- 69.4 69.4 64.8---
2024-07-19 06:40 pmSSW 9.7 11.7 1.0 3- S30.14- 69.4 69.6 64.9---
2024-07-19 06:30 pmSSW 9.7 11.7 1.0 3- S30.14- 69.4 69.6 64.8---
2024-07-19 06:20 pmSSW 7.8 9.7 1.0 3- S30.15- 69.4 69.6 65.1---
2024-07-19 06:10 pmSSW 9.7 11.7 1.0 3- S30.15- 69.4 69.6 64.6---
2024-07-19 06:00 pmSSW 9.7 11.7 1.0 3- S30.15-0.02 69.4 69.6 64.8---
2024-07-19 05:50 pmSSW 9.7 11.7 1.0 3- S30.15- 69.3 69.8 64.9---
2024-07-19 05:40 pmSSW 9.7 11.7 1.0 3- S30.15- 69.3 69.8 64.8---
2024-07-19 05:30 pmSSW 9.7 9.7 1.0 3- S30.15- 69.3 69.8 64.9---
2024-07-19 05:20 pmSSW 7.8 11.7 1.0 3- S30.16- 69.1 69.8 64.8---
2024-07-19 05:10 pmSSW 7.8 9.7 1.0 3- S30.16- 69.1 69.6 64.9---
2024-07-19 05:00 pmSSW 7.8 9.7 1.0 3- S30.16-0.03 69.1 69.6 64.9---
2024-07-19 04:50 pmSSW 7.8 9.7 1.0 3-SSW30.16- 68.9 69.6 65.1---
2024-07-19 04:40 pmSSW 7.8 7.8 1.0 3-SSW30.16- 68.5 69.3 65.1---
2024-07-19 04:30 pmSSW 5.8 7.8 1.0 3-SSW30.16- 68.2 68.2 64.8---
2024-07-19 04:20 pmSSW 5.8 7.8 1.0 3-SSW30.16- 68.0 69.6 64.8---
2024-07-19 04:10 pmSSW 5.8 5.8 1.0 3- SW30.16- 67.8 69.4 64.6---
2024-07-19 04:00 pmSSW 5.8 7.8 1.0 3- SW30.16-0.03 67.6 69.1 64.0---
2024-07-19 03:50 pmSSW 5.8 7.8 1.0 3- SW30.16- 67.6 69.1 64.0---
2024-07-19 03:40 pmSSW 5.8 7.8 1.0 3- SW30.16- 67.5 68.0 64.2---
2024-07-19 03:30 pmSSW 7.8 7.8 1.0 3- SW30.16- 67.3 68.7 64.0---
2024-07-19 03:20 pmSSW 7.8 7.8 1.0 3- SW30.17- 67.1 68.4 64.0---
2024-07-19 03:10 pmSSW 5.8 7.8 1.3 3- SW30.17- 67.1 68.5 64.0---
2024-07-19 03:00 pmSSW 5.8 7.8 1.3 3- SW30.17-0.03 67.1 68.9 64.0---
2024-07-19 02:50 pm S 5.8 7.8 1.3 3- SW30.17- 66.9 68.7 63.5---
2024-07-19 02:40 pmSSW 7.8 7.8 1.3 3- SW30.18- 67.1 68.7 63.3---
2024-07-19 02:30 pmSSW 5.8 9.7 1.3 3- SW30.18- 66.9 68.5 63.7---
2024-07-19 02:20 pm S 5.8 7.8 1.3 3- SW30.18- 66.9 68.4 63.7---
2024-07-19 02:10 pmSSW 5.8 7.8 1.3 3-WSW30.18- 66.9 67.5 64.0---
2024-07-19 02:00 pmSSW 7.8 9.7 1.3 3-WSW30.18-0.02 66.9 66.0 64.0---
2024-07-19 01:50 pm S 5.8 7.8 1.3 3- W30.19- 66.9 64.8 63.9---
2024-07-19 01:40 pmSSW 5.8 7.8 1.3 3- W30.19- 67.3 66.0 63.7---
2024-07-19 01:30 pmSSW 5.8 5.8 1.3 3- W30.19- 67.3 66.0 64.0---
2024-07-19 01:20 pmSSW 5.8 7.8 1.3 3- W30.19- 67.1 65.1 63.9---
2024-07-19 01:10 pmSSW 5.8 5.8 1.6 3- W30.19- 66.9 65.7 64.0---
2024-07-19 01:00 pmSSW 3.9 5.8 1.6 3- W30.19-0.01 66.7 64.2 64.4---
2024-07-19 12:50 pmSSW 3.9 5.8 1.6 3- W30.20- 66.7 65.1 64.2---
2024-07-19 12:40 pm SW 5.8 5.8 1.6 3- W30.20- 66.7 63.0 64.2---
2024-07-19 12:30 pm SW 3.9 5.8 1.6 4- W30.20- 66.6 65.7 64.2---
2024-07-19 12:20 pmSSW 5.8 5.8 1.6 4- W30.20- 66.4 64.8 64.0---
2024-07-19 12:10 pmSSW 5.8 7.8 1.6 3- W30.20- 66.4 64.9 64.0---
2024-07-19 12:00 pmSSW 5.8 7.8 1.6 3- W30.20+0.00 66.2 64.6 64.0---
2024-07-19 11:50 amSSW 5.8 7.8 2.0 4- W30.20- 66.0 64.4 63.9---
2024-07-19 11:40 amSSW 5.8 5.8 2.0 4- W30.20- 66.0 66.0 63.7---
2024-07-19 11:30 amSSW 5.8 7.8 2.0 3- W30.20- 66.0 65.8 63.5---
2024-07-19 11:20 amSSW 5.8 5.8 2.0 3- W30.20- 65.7 66.9 63.7---
2024-07-19 11:10 amSSW 5.8 7.8 2.0 3- W30.20- 65.5 66.6 63.3---
2024-07-19 11:00 am SW 5.8 5.8 2.0 3- W30.20+0.00 65.3 66.7 63.3---
2024-07-19 10:50 am SW 5.8 5.8 2.0 4- W30.21- 65.1 66.6 63.0---
2024-07-19 10:40 am SW 5.8 7.8 2.0 4- W30.21- 64.8 63.7 62.6---
2024-07-19 10:30 am SW 3.9 5.8 2.0 4- W30.21- 64.6 64.6 62.2---
2024-07-19 10:20 amSSW 5.8 7.8 2.0 4- W30.21- 64.4 64.8 62.2---
2024-07-19 10:10 amSSW 5.8 7.8 1.6 4- W30.21- 64.0 64.8 61.5---
2024-07-19 10:00 amSSW 5.8 7.8 1.6 4- W30.20+0.01 63.5 64.9 61.2---
2024-07-19 09:50 amSSW 5.8 7.8 1.3 4- W30.21- 63.3 64.6 61.2---
2024-07-19 09:40 amSSW 5.8 7.8 1.3 4- W30.21- 63.1 63.9 61.3---
2024-07-19 09:30 amSSW 3.9 5.8 1.3 3- W30.21- 62.4 62.6 60.6---
2024-07-19 09:20 amSSW 5.8 7.8 1.3 3- W30.21- 61.9 59.5 59.9---
2024-07-19 09:10 amSSW 5.8 5.8 1.3 3- W30.20- 62.2 55.9 59.9---
2024-07-19 09:00 am SW 5.8 7.8 1.3 3- W30.20+0.02 62.1 55.0 60.4---
2024-07-19 08:50 amSSW 5.8 7.8 1.3 3- W30.20- 62.1 54.9 60.1---
2024-07-19 08:40 amSSW 5.8 7.8 1.3 3- W30.21- 62.1 54.1 60.3---
2024-07-19 08:30 am SW 5.8 5.8 1.0 3- W30.21- 62.2 54.7 60.1---
2024-07-19 08:20 am SW 5.8 7.8 1.0 3- W30.21- 62.2 55.4 59.9---
2024-07-19 08:10 amSSW 5.8 7.8 1.0 3- W30.21- 62.2 55.6 59.9---
2024-07-19 08:00 amSSW 5.8 7.8 1.0 3- W30.20+0.02 62.2 57.6 59.7---
2024-07-19 07:50 amSSW 5.8 5.8 1.0 3-WSW30.20- 61.9 57.6 59.5---

Detailed Wave Summary
for 45024 as of (8:20 am EDT)
1220 GMT on 07/20/2024:

These wave data are displayed in rounded times.

     

Click on the graph icon in the table below to see a time series plot of the last five days of that observation.

5-day plot - Significant Wave Height Significant Wave Height (WVHT): 1.6 ft
Previous observations
TIME
(EDT)
5-day plot - Wave Height
WVHT
ft
5-day plot - Swell Height
SwH
ft
5-day plot - Swell Period
SwP
sec
5-day plot - Swell Direction
SwD
 
5-day plot - Wind Wave Height
WWH
ft
5-day plot - Wind Wave Period
WWP
sec
5-day plot - Wind Wave Direction
WWD
 
5-day plot - Wave Steepness
STEEPNESS
 
5-day plot - Average Wave Period
APD
sec
2024-07-20 08:10 am 2.0------ N/A-
2024-07-20 08:00 am 2.0------ N/A-
2024-07-20 07:50 am 2.0------ N/A-
2024-07-20 07:40 am 2.0------ N/A-
2024-07-20 07:30 am 2.0------ N/A-
2024-07-20 07:20 am 2.0------ N/A-
2024-07-20 07:10 am 2.0------ N/A-
2024-07-20 07:00 am 2.0------ N/A-
2024-07-20 06:50 am 2.0------ N/A-
2024-07-20 06:40 am 2.0------ N/A-
2024-07-20 06:30 am 2.0------ N/A-
2024-07-20 06:20 am 2.0------ N/A-
2024-07-20 06:10 am 2.0------ N/A-
2024-07-20 06:00 am 2.0------ N/A-
2024-07-20 05:50 am 2.0------ N/A-
2024-07-20 05:40 am 2.0------ N/A-
2024-07-20 05:30 am 2.0------ N/A-
2024-07-20 05:20 am 2.0------ N/A-
2024-07-20 05:10 am 2.0------ N/A-
2024-07-20 05:00 am 2.0------ N/A-
2024-07-20 04:50 am 2.0------ N/A-
2024-07-20 04:40 am 2.0------ N/A-
2024-07-20 04:30 am 2.0------ N/A-
2024-07-20 04:20 am 2.0------ N/A-
2024-07-20 04:10 am 2.0------ N/A-
2024-07-20 04:00 am 2.0------ N/A-
2024-07-20 03:50 am 2.0------ N/A-
2024-07-20 03:40 am 2.0------ N/A-
2024-07-20 03:30 am 2.0------ N/A-
2024-07-20 03:20 am 2.0------ N/A-
2024-07-20 03:10 am 2.0------ N/A-
2024-07-20 03:00 am 2.0------ N/A-
2024-07-20 02:50 am 2.0------ N/A-
2024-07-20 02:40 am 2.0------ N/A-
2024-07-20 02:30 am 2.0------ N/A-
2024-07-20 02:20 am 2.0------ N/A-
2024-07-20 02:10 am 2.0------ N/A-
2024-07-20 02:00 am 2.0------ N/A-
2024-07-20 01:50 am 2.0------ N/A-
2024-07-20 01:40 am 2.0------ N/A-
2024-07-20 01:30 am 2.0------ N/A-
2024-07-20 01:20 am 1.6------ N/A-
2024-07-20 01:10 am 1.6------ N/A-
2024-07-20 01:00 am 1.6------ N/A-
2024-07-20 12:50 am 1.6------ N/A-
2024-07-20 12:40 am 2.0------ N/A-
2024-07-20 12:30 am 2.0------ N/A-
2024-07-20 12:20 am 2.0------ N/A-
2024-07-20 12:10 am 2.0------ N/A-
2024-07-20 12:00 am 2.0------ N/A-
2024-07-19 11:50 pm 2.0------ N/A-
2024-07-19 11:40 pm 2.0------ N/A-
2024-07-19 11:30 pm 2.0------ N/A-
2024-07-19 11:20 pm 2.0------ N/A-
2024-07-19 11:10 pm 2.0------ N/A-
2024-07-19 11:00 pm 2.0------ N/A-
2024-07-19 10:50 pm 2.0------ N/A-
2024-07-19 10:40 pm 2.0------ N/A-
2024-07-19 10:30 pm 2.0------ N/A-
2024-07-19 10:20 pm 1.6------ N/A-
2024-07-19 10:10 pm 1.6------ N/A-
2024-07-19 10:00 pm 1.6------ N/A-
2024-07-19 09:50 pm 1.6------ N/A-
2024-07-19 09:40 pm 1.6------ N/A-
2024-07-19 09:30 pm 1.6------ N/A-
2024-07-19 09:20 pm 1.3------ N/A-
2024-07-19 09:10 pm 1.3------ N/A-
2024-07-19 09:00 pm 1.3------ N/A-
2024-07-19 08:50 pm 1.3------ N/A-
2024-07-19 08:40 pm 0.3------ N/A-
2024-07-19 08:30 pm 0.3------ N/A-
2024-07-19 08:20 pm 1.0------ N/A-
2024-07-19 08:10 pm 0.7------ N/A-
2024-07-19 08:00 pm 1.3------ N/A-
2024-07-19 07:50 pm 1.3------ N/A-
2024-07-19 07:40 pm 1.3------ N/A-
2024-07-19 07:30 pm 1.3------ N/A-
2024-07-19 07:20 pm 1.3------ N/A-
2024-07-19 07:10 pm 1.0------ N/A-
2024-07-19 07:00 pm 1.0------ N/A-
2024-07-19 06:50 pm 1.0------ N/A-
2024-07-19 06:40 pm 1.0------ N/A-
2024-07-19 06:30 pm 1.0------ N/A-
2024-07-19 06:20 pm 1.0------ N/A-
2024-07-19 06:10 pm 1.0------ N/A-
2024-07-19 06:00 pm 1.0------ N/A-
2024-07-19 05:50 pm 1.0------ N/A-
2024-07-19 05:40 pm 1.0------ N/A-
2024-07-19 05:30 pm 1.0------ N/A-
2024-07-19 05:20 pm 1.0------ N/A-
2024-07-19 05:10 pm 1.0------ N/A-
2024-07-19 05:00 pm 1.0------ N/A-
2024-07-19 04:50 pm 1.0------ N/A-
2024-07-19 04:40 pm 1.0------ N/A-
2024-07-19 04:30 pm 1.0------ N/A-
2024-07-19 04:20 pm 1.0------ N/A-
2024-07-19 04:10 pm 1.0------ N/A-
2024-07-19 04:00 pm 1.0------ N/A-
2024-07-19 03:50 pm 1.0------ N/A-
2024-07-19 03:40 pm 1.0------ N/A-
2024-07-19 03:30 pm 1.0------ N/A-
2024-07-19 03:20 pm 1.0------ N/A-
2024-07-19 03:10 pm 1.3------ N/A-
2024-07-19 03:00 pm 1.3------ N/A-
2024-07-19 02:50 pm 1.3------ N/A-
2024-07-19 02:40 pm 1.3------ N/A-
2024-07-19 02:30 pm 1.3------ N/A-
2024-07-19 02:20 pm 1.3------ N/A-
2024-07-19 02:10 pm 1.3------ N/A-
2024-07-19 02:00 pm 1.3------ N/A-
2024-07-19 01:50 pm 1.3------ N/A-
2024-07-19 01:40 pm 1.3------ N/A-
2024-07-19 01:30 pm 1.3------ N/A-
2024-07-19 01:20 pm 1.3------ N/A-
2024-07-19 01:10 pm 1.6------ N/A-
2024-07-19 01:00 pm 1.6------ N/A-
2024-07-19 12:50 pm 1.6------ N/A-
2024-07-19 12:40 pm 1.6------ N/A-
2024-07-19 12:30 pm 1.6------ N/A-
2024-07-19 12:20 pm 1.6------ N/A-
2024-07-19 12:10 pm 1.6------ N/A-
2024-07-19 12:00 pm 1.6------ N/A-
2024-07-19 11:50 am 2.0------ N/A-
2024-07-19 11:40 am 2.0------ N/A-
2024-07-19 11:30 am 2.0------ N/A-
2024-07-19 11:20 am 2.0------ N/A-
2024-07-19 11:10 am 2.0------ N/A-
2024-07-19 11:00 am 2.0------ N/A-
2024-07-19 10:50 am 2.0------ N/A-
2024-07-19 10:40 am 2.0------ N/A-
2024-07-19 10:30 am 2.0------ N/A-
2024-07-19 10:20 am 2.0------ N/A-
2024-07-19 10:10 am 1.6------ N/A-
2024-07-19 10:00 am 1.6------ N/A-
2024-07-19 09:50 am 1.3------ N/A-
2024-07-19 09:40 am 1.3------ N/A-
2024-07-19 09:30 am 1.3------ N/A-
2024-07-19 09:20 am 1.3------ N/A-
2024-07-19 09:10 am 1.3------ N/A-
2024-07-19 09:00 am 1.3------ N/A-
2024-07-19 08:50 am 1.3------ N/A-
2024-07-19 08:40 am 1.3------ N/A-
2024-07-19 08:30 am 1.0------ N/A-
2024-07-19 08:20 am 1.0------ N/A-
2024-07-19 08:10 am 1.0------ N/A-
2024-07-19 08:00 am 1.0------ N/A-
2024-07-19 07:50 am 1.0------ N/A-

Ocean Conditions at 45024 as of
(8:20 am EDT)
1220 GMT on 07/20/2024:

These oceanographic data are displayed in rounded times.

     

Click on the graph icon in the table below to see a time series plot of the last five days of that observation.

Depth (DEPTH): 9.8 ft
5-day plot - Ocean Temperature Ocean Temperature (OTMP):60.94 °F
Previous observations
TIME
(EDT)
DEPTH
ft
5-day plot - Ocean Temperature
OTMP
°F
5-day plot - Conductivity
COND
mS/cm
5-day plot - Salinity
SAL
psu
5-day plot - Oxygen Concentration
O2%
%
5-day plot - Oxygen Concentration
O2PPM
ppm
5-day plot - Chlorophyll
CLCON
ug/l
5-day plot - Turbidity
TURB
FTU
5-day plot - pH
PH
 
5-day plot - Eh
EH
mv
2024-07-20 08:10 am 9.861.43--------
2024-07-20 08:00 am 9.861.38--------
2024-07-20 07:50 am 9.861.09--------
2024-07-20 07:40 am 9.862.10--------
2024-07-20 07:30 am 9.861.79--------
2024-07-20 07:20 am 9.862.38--------
2024-07-20 07:10 am 9.862.58--------
2024-07-20 07:00 am 9.862.98--------
2024-07-20 06:50 am 9.862.87--------
2024-07-20 06:40 am 9.863.21--------
2024-07-20 06:30 am 9.863.14--------
2024-07-20 06:20 am 9.863.19--------
2024-07-20 06:10 am 9.863.45--------
2024-07-20 06:00 am 9.863.39--------
2024-07-20 05:50 am 9.864.60--------
2024-07-20 05:40 am 9.864.02--------
2024-07-20 05:30 am 9.864.24--------
2024-07-20 05:20 am 9.864.33--------
2024-07-20 05:10 am 9.863.75--------
2024-07-20 05:00 am 9.864.42--------
2024-07-20 04:50 am 9.863.66--------
2024-07-20 04:40 am 9.864.67--------
2024-07-20 04:30 am 9.865.70--------
2024-07-20 04:20 am 9.864.89--------
2024-07-20 04:10 am 9.864.45--------
2024-07-20 04:00 am 9.864.54--------
2024-07-20 03:50 am 9.859.40--------
2024-07-20 03:40 am 9.859.23--------
2024-07-20 03:30 am 9.856.46--------
2024-07-20 03:20 am 9.855.08--------
2024-07-20 03:10 am 9.855.72--------
2024-07-20 03:00 am 9.855.96--------
2024-07-20 02:50 am 9.858.59--------
2024-07-20 02:40 am 9.855.98--------
2024-07-20 02:30 am 9.859.22--------
2024-07-20 02:20 am 9.862.83--------
2024-07-20 02:10 am 9.859.99--------
2024-07-19 04:10 pm 9.846.69--------
2024-07-19 04:00 pm 9.847.43--------
2024-07-19 03:50 pm 9.848.43--------
2024-07-19 03:40 pm 9.846.81--------
2024-07-19 03:30 pm 9.847.07--------
2024-07-19 03:20 pm 9.851.73--------
2024-07-19 03:10 pm 9.847.84--------
2024-07-19 03:00 pm 9.850.02--------
2024-07-19 02:50 pm 9.849.89--------
2024-07-19 02:40 pm 9.851.13--------
2024-07-19 02:20 pm 9.844.62--------
2024-07-19 02:10 pm 9.844.98--------
2024-07-19 02:00 pm 9.844.76--------
2024-07-19 01:50 pm 9.844.37--------
2024-07-19 01:40 pm 9.844.71--------
2024-07-19 01:30 pm 9.844.92--------
2024-07-19 01:20 pm 9.845.01--------
2024-07-19 01:10 pm 9.845.09--------
2024-07-19 01:00 pm 9.844.53--------
2024-07-19 12:50 pm 9.844.58--------
2024-07-19 12:40 pm 9.844.80--------
2024-07-19 12:30 pm 9.844.62--------
2024-07-19 12:20 pm 9.844.91--------
2024-07-19 12:10 pm 9.844.89--------
2024-07-19 12:00 pm 9.845.32--------
2024-07-19 11:50 am 9.845.32--------
2024-07-19 11:40 am 9.845.66--------
2024-07-19 11:30 am 9.845.90--------
2024-07-19 11:20 am 9.846.17--------
2024-07-19 11:10 am 9.847.01--------
2024-07-19 11:00 am 9.847.01--------
2024-07-19 10:50 am 9.847.59--------
2024-07-19 10:40 am 9.847.30--------
2024-07-19 10:30 am 9.847.53--------
2024-07-19 10:20 am 9.848.33--------
2024-07-19 10:10 am 9.849.77--------
2024-07-19 10:00 am 9.850.27--------
2024-07-19 09:50 am 9.850.79--------
2024-07-19 09:40 am 9.849.42--------
2024-07-19 09:30 am 9.849.15--------
2024-07-19 09:20 am 9.849.24--------
2024-07-19 09:10 am 9.848.31--------
2024-07-19 09:00 am 9.848.16--------
2024-07-19 08:50 am 9.848.56--------
2024-07-19 08:40 am 9.849.24--------
2024-07-19 08:30 am 9.849.06--------
2024-07-19 08:20 am 9.849.42--------
2024-07-19 08:10 am 9.849.48--------
2024-07-19 08:00 am 9.849.37--------
2024-07-19 07:50 am 9.849.91--------

Solar Radiation Conditions at 45024 as of
(8:20 am EDT)
1220 GMT on 07/20/2024:
     

Click on the graph icon in the table below to see a time series plot of the last five days of that observation.

5-day plot - Short Wave Radiation 1 Short Wave Radiation 1 (SRAD1): 244.9watts/meter2
Previous observations
TIME
(EDT)
5-day plot - Short Wave Radiation 1
SRAD1
w/m2
5-day plot - Short Wave Radiation 2
SRAD2
w/m2
5-day plot - Long Wave Radiation
LRAD
w/m2
2024-07-20 08:10 am 226.9--
2024-07-20 08:00 am 196.0--
2024-07-20 07:50 am 168.6--
2024-07-20 07:40 am 139.1--
2024-07-20 07:30 am 93.6--
2024-07-20 07:20 am 78.9--
2024-07-20 07:10 am 54.4--
2024-07-20 07:00 am 30.0--
2024-07-20 06:50 am 15.4--
2024-07-20 06:40 am 11.8--
2024-07-20 06:30 am 5.5--
2024-07-20 06:20 am 2.7--
2024-07-20 06:10 am 0.4--
2024-07-20 06:00 am 0.0--
2024-07-20 05:50 am 0.0--
2024-07-20 05:40 am 0.0--
2024-07-20 05:30 am 0.0--
2024-07-20 05:20 am 0.0--
2024-07-20 05:10 am 0.0--
2024-07-20 05:00 am 0.0--
2024-07-20 04:50 am 0.0--
2024-07-20 04:40 am 0.0--
2024-07-20 04:30 am 0.0--
2024-07-20 04:20 am 0.0--
2024-07-20 04:10 am 0.0--
2024-07-20 04:00 am 0.0--
2024-07-20 03:50 am 0.0--
2024-07-20 03:40 am 0.0--
2024-07-20 03:30 am 0.0--
2024-07-20 03:20 am 0.0--
2024-07-20 03:10 am 0.0--
2024-07-20 03:00 am 0.0--
2024-07-20 02:50 am 0.0--
2024-07-20 02:40 am 0.0--
2024-07-20 02:30 am 0.0--
2024-07-20 02:20 am 0.0--
2024-07-20 02:10 am 0.0--
2024-07-20 02:00 am 0.0--
2024-07-20 01:50 am 0.0--
2024-07-20 01:40 am 0.0--
2024-07-20 01:30 am 0.0--
2024-07-20 01:20 am 0.0--
2024-07-20 01:10 am 0.0--
2024-07-20 01:00 am 0.0--
2024-07-20 12:50 am 0.0--
2024-07-20 12:40 am 0.0--
2024-07-20 12:30 am 0.0--
2024-07-20 12:20 am 0.0--
2024-07-20 12:10 am 0.0--
2024-07-20 12:00 am 0.0--
2024-07-19 11:50 pm 0.0--
2024-07-19 11:40 pm 0.0--
2024-07-19 11:30 pm 0.0--
2024-07-19 11:20 pm 0.0--
2024-07-19 11:10 pm 0.0--
2024-07-19 11:00 pm 0.0--
2024-07-19 10:50 pm 0.0--
2024-07-19 10:40 pm 0.0--
2024-07-19 10:30 pm 0.0--
2024-07-19 10:20 pm 0.0--
2024-07-19 10:10 pm 0.0--
2024-07-19 10:00 pm 0.0--
2024-07-19 09:50 pm 0.0--
2024-07-19 09:40 pm 0.5--
2024-07-19 09:30 pm 2.0--
2024-07-19 09:20 pm 4.8--
2024-07-19 09:10 pm 9.7--
2024-07-19 09:00 pm 17.2--
2024-07-19 08:50 pm 31.1--
2024-07-19 08:40 pm 54.3--
2024-07-19 08:30 pm 74.8--
2024-07-19 08:20 pm 99.0--
2024-07-19 08:10 pm 121.1--
2024-07-19 08:00 pm 152.8--
2024-07-19 07:50 pm 181.6--
2024-07-19 07:40 pm 213.9--
2024-07-19 07:30 pm 241.4--
2024-07-19 07:20 pm 267.8--
2024-07-19 07:10 pm 291.5--
2024-07-19 07:00 pm 328.6--
2024-07-19 06:50 pm 351.9--
2024-07-19 06:40 pm 369.0--
2024-07-19 06:30 pm 406.3--
2024-07-19 06:20 pm 441.2--
2024-07-19 06:10 pm 463.9--
2024-07-19 06:00 pm 491.0--
2024-07-19 05:50 pm 519.9--
2024-07-19 05:40 pm 547.5--
2024-07-19 05:30 pm 585.2--
2024-07-19 05:20 pm 635.9--
2024-07-19 05:10 pm 672.2--
2024-07-19 05:00 pm 701.0--
2024-07-19 04:50 pm 720.1--
2024-07-19 04:40 pm 743.5--
2024-07-19 04:30 pm 771.5--
2024-07-19 04:20 pm 791.7--
2024-07-19 04:10 pm 816.0--
2024-07-19 04:00 pm 832.0--
2024-07-19 03:50 pm 850.0--
2024-07-19 03:40 pm 878.0--
2024-07-19 03:30 pm 882.0--
2024-07-19 03:20 pm 889.0--
2024-07-19 03:10 pm 894.0--
2024-07-19 03:00 pm 907.0--
2024-07-19 02:50 pm 903.0--
2024-07-19 02:40 pm 907.0--
2024-07-19 02:30 pm 910.0--
2024-07-19 02:20 pm 914.0--
2024-07-19 02:10 pm 923.0--
2024-07-19 02:00 pm 923.0--
2024-07-19 01:50 pm 926.0--
2024-07-19 01:40 pm 925.0--
2024-07-19 01:30 pm 921.0--
2024-07-19 01:20 pm 919.0--
2024-07-19 01:10 pm 906.0--
2024-07-19 01:00 pm 898.0--
2024-07-19 12:50 pm 890.0--
2024-07-19 12:40 pm 877.0--
2024-07-19 12:30 pm 875.0--
2024-07-19 12:20 pm 860.0--
2024-07-19 12:10 pm 847.0--
2024-07-19 12:00 pm 832.0--
2024-07-19 11:50 am 819.0--
2024-07-19 11:40 am 807.0--
2024-07-19 11:30 am 777.2--
2024-07-19 11:20 am 748.8--
2024-07-19 11:10 am 729.3--
2024-07-19 11:00 am 707.7--
2024-07-19 10:50 am 684.2--
2024-07-19 10:40 am 652.7--
2024-07-19 10:30 am 624.7--
2024-07-19 10:20 am 603.0--
2024-07-19 10:10 am 575.9--
2024-07-19 10:00 am 539.7--
2024-07-19 09:50 am 512.0--
2024-07-19 09:40 am 485.7--
2024-07-19 09:30 am 454.0--
2024-07-19 09:20 am 416.0--
2024-07-19 09:10 am 375.6--
2024-07-19 09:00 am 336.2--
2024-07-19 08:50 am 309.8--
2024-07-19 08:40 am 289.3--
2024-07-19 08:30 am 269.1--
2024-07-19 08:20 am 252.8--
2024-07-19 08:10 am 220.4--
2024-07-19 08:00 am 180.7--
2024-07-19 07:50 am 143.2--